Location: Hepcat Sky Observatory
(29.9800°N, 95.6500°W)
Time: 18:42:47
(UTC-06:00)

Daily predictions for brighter satellites

Satellite Brightness Start Highest point End
(mag) Time Altitude Azimuth Time Altitude Azimuth Time Altitude Azimuth
Cosmos 2082 4.4 17:46:13 10° N 17:51:08 31° ENE 17:56:03 10° SE
SJ-7 4.3 17:49:03 10° SSE 17:53:03 80° ENE 17:57:02 10° N
ERS-2 3.9 17:52:27 10° E 17:54:20 14° ENE 17:56:12 10° NE
ISS -2.7 17:51:45 10° NNW 17:54:34 26° NE 17:57:22 10° E
CZ-2C R/B 4.3 17:50:07 10° SSW 17:54:54 38° W 17:59:41 10° NNW
Landsat 4 4.1 17:52:59 10° NNE 17:56:39 43° E 18:00:16 10° S
Cosmos 2266 Rocket 4.2 17:52:23 10° N 17:58:14 46° E 18:04:08 10° SSE
Cosmos 1655 Rocket 4.3 17:52:21 10° N 17:58:45 76° W 18:05:07 10° S
CORIOLIS 4.1 17:55:41 10° SSE 18:01:02 67° ENE 18:06:24 10° N
Cosmos 2227 Rocket 2.3 17:57:29 10° N 18:02:59 52° ENE 18:08:28 10° SE
Cosmos 1455 Rocket 3.1 17:58:47 10° N 18:03:12 89° E 18:07:33 10° S
Ariane Rocket 3.0 18:00:45 10° SSE 18:05:48 88° WSW 18:10:53 10° NNW
YAOGAN 1 2.9 18:02:48 10° SE 18:06:53 44° ENE 18:11:00 10° N
Cosmos 1544 Rocket 3.8 18:03:08 10° N 18:07:27 73° W 18:11:45 10° S
Cosmos 1271 Rocket 3.4 18:04:58 10° NNW 18:08:44 59° W 18:12:32 10° S
Delta 2 Rocket 4.0 18:05:05 10° WNW 18:10:43 67° NNE 18:15:49 10° E
AQUARIUS 4.4 18:08:03 10° S 18:12:31 74° W 18:17:01 10° NNW
USA 116 3.7 18:10:14 10° N 18:13:17 59° WNW 18:16:21 10° SSW
Cosmos 1980 Rocket 2.6 18:08:40 10° S 18:13:57 43° ESE 18:19:17 10° NE
Meteor 1-23 Rocket 4.2 18:09:35 10° S 18:15:21 76° E 18:21:04 10° NNE
Meteor 2-9 Rocket 4.0 18:10:31 10° N 18:15:58 75° E 18:21:17 10° SSE
Cosmos 1125 Rocket 4.4 18:13:40 10° SSW 18:18:48 50° WNW 18:23:57 10° N
Cosmos 1484 Rocket 4.1 18:15:49 10° S 18:19:38 45° W 18:23:30 10° NNW
Cosmos 1269 Rocket 4.2 18:18:03 10° N 18:23:08 46° ENE 18:28:12 10° SE
SJ 16-02 2.9 18:23:58 10° SW 18:27:59 35° WNW 18:32:00 10° N
COSMO-SKYMED 1 2.6 18:24:37 10° N 18:28:58 83° WNW 18:33:18 10° SSW
Cosmos 2297 Rocket 2.1 18:23:56 10° NNW 18:29:36 77° ENE 18:35:14 10° SSE
Atlas Centaur 2 2.1 18:24:10 10° W 18:29:39 65° SSW 18:33:25 14° ESE
IRS-1A Rocket 4.3 18:24:40 10° SSE 18:30:18 89° WSW 18:35:52 10° NNW
Shenzhou-11 Module 3.6 18:28:02 10° S 18:30:21 21° SE 18:31:01 19° ESE
USA 238 DEB 3.8 18:23:12 10° NNW 18:30:22 83° ENE 18:37:36 10° SSE
USA 238 3.8 18:23:18 10° NNW 18:30:28 82° ENE 18:37:42 10° SSE
Cosmos 1184 Rocket 3.8 18:28:16 10° SSE 18:30:59 25° E 18:31:00 25° E
Lacrosse 5 rocket 3.1 18:30:30 10° SSE 18:33:06 16° ESE 18:33:23 16° ESE
Cosmos 1048 Rocket 4.0 18:28:10 10° NNW 18:33:34 76° ENE 18:38:53 10° SSE
Cosmos 2344 4.4 18:31:04 10° SSE 18:37:31 28° ESE 18:40:34 22° ENE
RESURS DK-1 2.4 18:38:32 10° S 18:42:33 54° ESE 18:44:19 30° NE
Meteor 2-11 Rocket 4.4 18:38:46 10° S 18:44:55 88° E 18:51:05 10° N
Cosmos 1553 Rocket 4.3 18:40:42 10° SSE 18:46:43 45° E 18:52:38 11° NNE
Cosmos 724 4.1 18:42:45 10° NNW 18:48:34 82° ENE 18:54:24 10° SSE
Cosmos 1417 Rocket 4.5 18:43:56 10° SSE 18:49:54 57° E 18:55:56 10° NNE
Okean 1-7 Rocket 3.4 18:45:46 10° S 18:50:09 85° E 18:54:15 12° N
NOAA 12 4.0 18:45:59 10° SSE 18:51:13 69° ENE 18:56:27 10° N
Cosmos 1025 Rocket 3.4 18:47:28 10° SSW 18:51:45 64° W 18:56:00 10° N
ALOS 2.1 18:47:19 10° SSE 18:51:58 78° ENE 18:56:38 10° N
SL-16 R/B 3.0 18:50:29 10° SSE 18:55:19 30° ESE 18:55:26 30° E
GOES 2 Rocket 3.4 18:52:08 10° W 18:56:31 66° S 18:58:50 31° ESE
CZ-4 R/B 3.9 18:55:21 10° SSW 18:58:24 22° W 19:01:30 10° NW
NOSS 3-2 (A) 4.0 18:51:33 10° NNW 18:59:22 75° ENE 19:07:41 10° SE
DELTA 2 R/B (1) 4.4 18:54:36 10° NW 18:59:40 34° N 19:00:47 31° NE
Cosmos 2322 Rocket 2.9 18:55:29 10° SSE 19:00:14 32° ESE 19:00:14 32° ESE
FENGYUN 3A 3.6 18:55:23 10° SSE 19:00:46 89° ENE 19:06:10 10° NNW
Cosmos 2360 4.4 18:56:54 10° SSW 19:02:35 73° WNW 19:07:03 17° NNE
Hubble Space Telescope 2.1 19:01:03 10° W 19:04:49 34° SSW 19:06:32 23° SSE
NOSS 3-2 (C) 4.0 18:59:19 10° NNW 19:07:04 64° ENE 19:15:19 10° SE
IUS-26 SRM-1 3.9 19:02:42 10° WSW 19:07:25 28° S 19:07:46 27° SSE
Skynet4D Del rocket 3.9 19:03:59 10° W 19:10:00 63° S 19:11:57 39° ESE
SL-8 R/B 3.7 19:07:27 10° SW 19:12:16 75° NW 19:13:14 55° NNE
ATLAS 3B R/B 3.6 19:06:38 10° NW 19:12:52 47° WSW 19:19:02 10° S
USA 215 3.8 19:07:44 10° SSE 19:14:07 57° SW 19:20:32 10° NW
ERS-2 4.4 19:24:37 10° SSW 19:27:41 25° W 19:30:48 10° NW
ISS -1.1 19:28:32 10° W 19:30:53 18° SW 19:31:40 17° SW
FengYun 1-2 T 4.3 19:35:22 10° S 19:40:57 78° WSW 19:46:37 10° NNW
CENTAUR R/B 3.5 19:45:59 10° NNW 19:51:52 45° NNE 19:51:52 45° NNE
Cosmos 1980 Rocket 4.4 19:53:57 10° WSW 19:58:04 20° WNW 20:01:24 13° NNW
Lacrosse 5 rocket 4.1 20:08:04 10° WSW 20:09:08 17° WSW 20:09:08 17° WSW
Atlas Centaur 2 4.3 20:14:45 10° WSW 20:16:05 15° WSW 20:16:05 15° WSW
SL-16 R/B 4.2 20:34:29 10° WSW 20:37:22 23° W 20:37:22 23° W
Cosmos 2322 Rocket 4.4 20:39:45 10° WSW 20:42:07 20° W 20:42:07 20° W
